CW8078 Weather Reports


time (UTC)temp
F
wind
direction
speed
knots
gust
knots
rain 1hr
in
rain 24hr
in
rain mn
in
humidity
%
barometer
mb
20260506194303 62 231 0.0 0.9 0.00 0.48 0.03 47 1015.7
20260506193803 61 242 0.0 1.7 0.00 0.49 0.03 56 1015.7
20260506193303 60 293 0.0 0.0 0.00 0.49 0.03 45 1015.8
20260506191803 61 301 0.0 2.6 0.00 0.50 0.03 47 1015.9
20260506190804 62 312 0.9 2.6 0.00 0.51 0.03 51 1015.9
20260506190303 62 208 0.0 2.6 0.00 0.51 0.03 50 1015.8
20260506184304 62 286 0.0 2.6 0.00 0.52 0.03 46 1016.0
20260506183803 62 252 0.0 2.6 0.00 0.53 0.03 50 1016.0
20260506181303 62 286 0.0 1.7 0.00 0.55 0.03 47 1016.1
20260506180803 61 319 0.0 2.6 0.00 0.55 0.03 46 1016.2
20260506180303 61 9 0.0 4.3 0.00 0.55 0.03 49 1016.1
20260506174803 60 352 0.0 2.6 0.00 0.55 0.03 44 1015.9
20260506174303 61 232 0.0 0.0 0.00 0.55 0.03 48 1016.0
20260506173803 61 14 0.0 0.0 0.00 0.55 0.03 52 1016.2
20260506173303 60 274 0.0 0.9 0.00 0.56 0.03 52 1016.3
20260506171803 60 295 0.0 0.0 0.00 0.56 0.03 47 1016.3
20260506171303 60 4 0.0 0.9 0.00 0.56 0.03 56 1016.2
20260506170803 60 256 0.0 2.6 0.00 0.57 0.03 59 1016.2
20260506170303 58 5 0.0 6.1 0.00 0.57 0.03 50 1016.2
20260506164804 58 306 0.0 1.7 0.00 0.59 0.03 53 1016.2
20260506164304 57 4 0.0 0.0 0.00 0.61 0.03 64 1016.1
20260506163303 57 327 0.0 0.9 0.00 0.62 0.03 67 1016.0
20260506161803 56 293 0.0 0.0 0.00 0.62 0.03 62 1016.0
20260506161303 56 356 0.0 0.9 0.00 0.62 0.03 69 1016.0
20260506160804 55 296 0.0 0.9 0.00 0.62 0.03 67 1016.0
20260506160303 55 60 0.0 4.3 0.00 0.62 0.03 67 1016.0
20260506154804 54 269 0.0 0.0 0.00 0.62 0.03 75 1016.0
20260506154304 54 290 0.0 0.0 0.00 0.62 0.03 76 1015.8
20260506153803 54 290 0.0 0.0 0.00 0.62 0.03 76 1015.8
20260506151303 52 290 0.0 0.0 0.00 0.62 0.03 79 1015.8
20260506150803 52 254 0.0 0.0 0.00 0.62 0.03 82 1015.8
20260506144804 51 192 0.0 0.9 0.00 0.62 0.03 86 1015.5
20260506144303 51 211 0.0 0.9 0.00 0.62 0.03 87 1015.5
20260506143302 51 275 0.0 0.0 0.00 0.62 0.03 88 1015.5
20260506141802 50 293 0.0 0.0 0.00 0.62 0.03 93 1015.0
20260506141302 50 293 0.0 0.0 0.00 0.62 0.03 94 1014.9
20260506140802 49 293 0.0 0.0 0.00 0.62 0.03 94 1014.8
20260506134302 48 293 0.0 0.0 0.00 0.62 0.03 94 1014.9
20260506133802 48 293 0.0 0.0 0.00 0.62 0.03 94 1015.0
20260506133302 48 293 0.0 0.0 0.00 0.62 0.03 94 1015.0
20260506131802 47 293 0.0 0.0 0.00 0.62 0.03 94 1014.9
20260506130802 47 293 0.0 0.0 0.00 0.62 0.03 93 1014.7
20260506130303 47 293 0.0 0.0 0.00 0.62 0.03 93 1014.9
20260506124803 46 293 0.0 0.0 0.00 0.62 0.03 93 1014.9
20260506124302 46 293 0.0 0.0 0.00 0.62 0.03 93 1015.1
20260506123803 46 293 0.0 0.0 0.00 0.62 0.03 93 1015.1
20260506123303 46 292 0.0 0.0 0.00 0.62 0.03 93 1014.9
20260506121802 46 285 0.0 0.0 0.00 0.62 0.03 93 1015.1
20260506121302 46 267 0.0 0.0 0.00 0.62 0.03 93 1015.1
20260506120803 46 248 0.0 0.0 0.00 0.62 0.03 94 1015.0
20260506120302 46 235 0.0 0.0 0.00 0.62 0.03 94 1014.6
20260506114302 46 180 0.0 0.0 0.01 0.62 0.03 94 1014.5
20260506113302 46 180 0.0 0.0 0.01 0.62 0.03 94 1013.9
20260506111302 46 180 0.0 0.0 0.01 0.63 0.03 94 1013.8
20260506110802 46 180 0.0 0.0 0.01 0.64 0.03 94 1013.7
20260506104802 46 180 0.0 0.0 0.00 0.66 0.02 94 1013.5
20260506104302 46 180 0.0 0.0 0.00 0.68 0.02 94 1013.1
20260506103802 46 180 0.0 0.0 0.00 0.70 0.02 94 1013.3
20260506103302 46 180 0.0 0.0 0.00 0.71 0.02 94 1013.0
20260506100802 46 180 0.0 0.0 0.00 0.79 0.02 94 1012.5
20260506100302 46 180 0.0 0.0 0.00 0.79 0.02 94 1012.3
20260506094303 46 180 0.0 0.0 0.00 0.82 0.02 94 1011.7
20260506093802 46 180 0.0 0.0 0.01 0.84 0.02 94 1011.6
20260506091803 46 180 0.0 0.0 0.01 0.86 0.02 94 1011.6
20260506091303 46 180 0.0 0.0 0.01 0.86 0.02 94 1011.6
20260506090802 46 180 0.0 0.0 0.01 0.86 0.02 94 1011.4
20260506090302 46 180 0.0 0.0 0.01 0.86 0.02 94 1011.6
20260506084802 46 180 0.0 0.0 0.01 0.86 0.02 94 1012.1
20260506084302 46 180 0.0 0.9 0.01 0.86 0.02 94 1012.0
20260506083302 46 180 0.0 0.0 0.00 0.86 0.01 94 1012.4
20260506081802 46 180 0.0 0.0 0.01 0.86 0.01 94 1012.4
20260506081302 46 180 0.0 0.0 0.01 0.86 0.01 94 1012.6
20260506080802 46 140 0.0 0.0 0.01 0.86 0.01 94 1012.7
20260506080302 46 111 0.0 0.0 0.01 0.87 0.01 94 1012.7
20260506073302 46 111 0.0 0.0 0.01 1.01 0.01 94 1012.4
20260506071802 46 111 0.0 0.0 0.00 1.01 0.00 94 1012.2
20260506071302 46 111 0.0 0.0 0.00 1.01 0.00 94 1012.4
20260506070302 46 111 0.0 0.0 0.00 1.01 0.00 94 1012.2
20260506061802 46 111 0.0 0.0 0.00 1.01 0.00 94 1012.2
20260506060802 46 10 0.0 0.0 0.00 1.01 0.00 94 1012.0
20260506060303 46 10 0.0 0.0 0.00 1.01 0.00 94 1012.1
20260506051302 46 10 0.0 0.0 0.00 1.01 0.00 94 1011.5
20260506050802 46 10 0.0 0.0 0.00 1.01 0.00 94 1011.4
20260506044802 46 10 0.0 0.0 0.00 1.01 1.01 94 1011.5
20260506044303 46 10 0.0 0.0 0.00 1.01 1.01 94 1011.7
20260506043803 46 10 0.0 0.0 0.00 1.01 1.01 94 1011.7
20260506043303 46 10 0.0 0.0 0.00 1.01 1.01 94 1011.6
20260506041803 46 10 0.0 0.0 0.00 1.01 1.01 94 1011.2
20260506040803 46 10 0.0 0.0 0.01 1.01 1.01 94 1011.4
20260506040302 46 10 0.0 0.0 0.01 1.01 1.01 94 1011.2
20260506034803 46 10 0.0 0.0 0.02 1.01 1.01 94 1011.7
20260506034303 46 10 0.0 0.0 0.02 1.01 1.01 94 1011.7
20260506033302 46 10 0.0 0.0 0.02 1.01 1.01 94 1011.2
20260506031803 46 10 0.0 0.0 0.03 1.01 1.01 94 1011.4
20260506031303 46 10 0.0 0.0 0.03 1.01 1.01 94 1011.4
20260506030803 46 10 0.0 0.0 0.02 1.00 1.00 94 1011.2
20260506024802 46 10 0.0 0.0 0.02 0.99 0.99 94 1011.3
20260506024303 46 10 0.0 0.0 0.02 0.99 0.99 94 1011.4
20260506023302 46 10 0.0 0.0 0.04 0.99 0.99 94 1011.0
20260506021303 45 10 0.0 0.0 0.07 0.98 0.98 93 1010.4
20260506020803 45 10 0.0 0.0 0.07 0.98 0.98 93 1010.2
20260506020302 45 10 0.0 0.0 0.08 0.98 0.98 93 1010.2
20260506014802 46 10 0.0 0.0 0.08 0.97 0.97 93 1010.1
20260506014302 46 10 0.0 0.0 0.08 0.97 0.97 93 1010.1
20260506013302 46 10 0.0 0.0 0.08 0.95 0.95 93 1010.1
20260506011803 46 10 0.0 0.0 0.06 0.92 0.92 93 1010.3
20260506011303 46 10 0.0 0.0 0.06 0.91 0.91 93 1010.1
20260506010803 46 10 0.0 0.0 0.06 0.91 0.91 93 1009.9
20260506010303 46 10 0.0 0.0 0.05 0.90 0.90 93 1010.0
20260506004803 45 10 0.0 0.0 0.07 0.89 0.89 93 1009.9
20260506004303 45 10 0.0 0.0 0.08 0.89 0.89 93 1009.7
20260506003803 45 10 0.0 0.0 0.08 0.88 0.88 93 1009.7
20260506003302 45 10 0.0 0.0 0.08 0.87 0.87 93 1009.5
20260506001802 45 10 0.0 0.0 0.09 0.86 0.86 93 1009.5
20260506001303 45 10 0.0 0.0 0.09 0.85 0.85 93 1009.2
20260506000302 45 10 0.0 0.0 0.10 0.85 0.85 93 1009.2
20260505234803 45 10 0.0 0.0 0.08 0.82 0.82 92 1009.7
20260505234303 46 10 0.0 0.0 0.07 0.81 0.81 93 1009.7
20260505233803 45 10 0.0 0.0 0.07 0.80 0.80 93 1009.7
20260505233303 45 10 0.0 0.0 0.06 0.79 0.79 93 1009.3
20260505231303 45 9 0.0 0.0 0.04 0.76 0.76 92 1009.4
20260505230303 45 31 0.0 0.0 0.04 0.75 0.75 92 1009.7
20260505224802 45 31 0.0 0.0 0.06 0.74 0.74 92 1009.7
20260505224303 45 290 0.0 0.0 0.07 0.74 0.74 92 1009.6
20260505223802 45 21 0.0 0.0 0.07 0.73 0.73 92 1009.6
20260505223303 45 21 0.0 0.0 0.08 0.73 0.73 92 1009.9
20260505221803 45 21 0.0 0.0 0.12 0.73 0.73 92 1009.2
20260505221303 45 48 0.0 1.7 0.11 0.72 0.72 91 1009.1
20260505220803 45 5 0.0 0.0 0.11 0.72 0.72 91 1009.1
20260505220303 45 13 0.0 2.6 0.10 0.71 0.71 90 1009.5
20260505214803 45 21 0.0 1.7 0.09 0.68 0.68 90 1009.0
20260505213803 46 63 0.0 0.0 0.08 0.66 0.66 90 1008.7
20260505213303 46 29 0.0 0.0 0.07 0.65 0.65 91 1008.6
20260505211304 47 352 0.0 0.0 0.05 0.61 0.61 91 1008.7
20260505210803 47 350 0.0 0.0 0.05 0.61 0.61 91 1008.8
20260505210303 47 4 0.0 0.0 0.05 0.61 0.61 91 1008.6
20260505204802 47 2 0.0 4.3 0.03 0.59 0.59 90 1008.9
20260505204303 47 357 0.0 1.7 0.03 0.59 0.59 90 1008.7
20260505203802 47 36 0.0 0.0 0.02 0.58 0.58 89 1009.0
20260505203302 47 330 0.0 0.0 0.03 0.58 0.58 90 1009.3
20260505201803 47 22 0.0 7.0 0.03 0.57 0.57 89 1008.8
20260505201303 48 12 0.0 0.0 0.02 0.56 0.56 90 1009.2
20260505200804 48 300 0.0 0.0 0.03 0.56 0.56 91 1009.3